ARIANE 40 R/B

Last updated on Sat Apr 13 2024 01:02:09 GMT+0100 (British Summer Time)

1 22830U 93061H 24103.60328536 .00000296 00000+0 12656-3 0 9996 2 22830 98.5755 171.9943 0011094 175.5031 184.6254 14.32041521594446
UTC large
Height (km)
Speed (km/s)
/
Latitude / Longitude
Inclination (degrees)
Orbital Period (minutes)
Azimuth
Elevation
Range (km)
Doppler Factor

Next 0 passes for location: London (51.5072 / 0.1276)

Sorry there are no passes over London.